Other Public Products
Issued by NWS Grand Forks, ND

Home | Current Version | Previous Version | Graphics & Text | Print | Product List | Glossary On
Versions: 1 2 3 4 5 6 7 8 9 10 11 12 13 14 15 16 17 18 19 20 21 22 23 24 25 26 27 28 29 30 31 32 33 34 35 36 37 38 39 40 41 42 43 44 45 46 47 48 49 50
000
FPUS83 KFGF 092210
OPUFGF
PRAIRIE TO PINES WEATHER ROUNDUP
NATIONAL WEATHER SERVICE EASTERN NORTH DAKOTA/GRAND FORKS ND
400 PM CST FRI DEC 09 2016

 **SATELLITE DATA USED TO AUGMENT SKY COVER AT AUTOMATED STATIONS**
 *****  WEATHER ACROSS EASTERN NORTH DAKOTA  *****

CITY           SKY/WX    TMP DP  RH WIND       PRES   REMARKS
GRAND FORKS    PTCLDY     0  -9  65 NW7       30.56F WCI -13
GRAND FORKS AF CLEAR      0 -10  62 NW10      30.56S WCI -17
GRAND CITY NWS NOT AVBL
BUXTON         NOT AVBL
DEVILS LAKE    PTCLDY    -8 -13  78 W12       30.53R WCI -27
FARGO          CLEAR      6  -3  66 NW10      30.55F WCI  -9
WAHPETON ARPT  CLOUDY     5   0  78 NW8       30.55S WCI  -8
$$

 *****  WEATHER ACROSS CENTRAL AND WESTERN NORTH DAKOTA  *****

CITY           SKY/WX    TMP DP  RH WIND       PRES   REMARKS
JAMESTOWN      CLEAR     -4 -10  75 NW14      30.52R WCI -24
BISMARCK       MOCLDY    -1  -7  75 W7        30.54F WCI -14
MINOT          CLEAR     -8 -14  74 W10       30.53F WCI -26
MINOT AFB      CLEAR    -12 -18  74 NW10      30.53F WCI -31
GARRISON         N/A     -6 -13  71 NW8       30.51S WCI -21
WILLISTON      PTCLDY    -3 -12  65 NE6       30.53F WCI -15
DICKINSON      CLEAR     -5 -10  79 W3        30.41
HETTINGER      CLOUDY    -3  -8  79 N3        30.43S
$$

 *****  OTHER OBSERVATIONS NORTHEAST NORTH DAKOTA  *****

CITY           SKY/WX    TMP DP  RH WIND       PRES   REMARKS
WALHALLA         N/A     -2  -2 100 NW8       30.56F WCI -17
LANGDON        CLOUDY    -6 -11  77 NW9       30.48S WCI -22
CAVALIER         N/A      0  -6  78 NW7       30.56F WCI -13
GRAFTON        FAIR      -4 -11  71 NW8       30.59S WCI -19
CANDO          CLOUDY    -6 N/A N/A NW8       30.55R WCI -21
FORT TOTTEN      N/A     -6 -12  75 NW7       29.95S WCI -20
ROLLA          MOCLDY    -9 -15  77 NW10      30.49R WCI -28
RUGBY            N/A    -11 -15  84 NW12      30.54R WCI -31
 ***** THE ABOVE OBSERVATIONS ARE NON NWS ARE NOT QUALITY
        CONTROLLED AND MAY MIS-REPORT RAIN FOR SNOW...
$$

 *****  OTHER OBSERVATIONS SOUTHEAST NORTH DAKOTA *****

CITY           SKY/WX    TMP DP  RH WIND       PRES   REMARKS
COOPERSTOWN    FAIR      -4  -9  77 W12       30.52S WCI -22
VALLEY CITY    FAIR       0  -8  71 NW12      30.54S WCI -18
OAKES          NOT AVBL
GWINNER        FAIR       5   0  78 NW12      30.54S WCI -11
SHEYENNE NWR     N/A      5  -5  62 N7        29.95S WCI  -7
BUFFALO        NOT AVBL
WYNDMERE       NOT AVBL
 ***** THE ABOVE OBSERVATIONS ARE NON NWS ARE NOT QUALITY
       CONTROLLED AND MAY MIS-REPORT RAIN FOR SNOW...
$$

  *****  WEATHER ACROSS NORTHERN MINNESOTA  *****

CITY           SKY/WX    TMP DP  RH WIND       PRES   REMARKS
FLAG ISLAND    CLEAR      3   0  85 W10       30.47S WCI -12
WARROAD        CLOUDY     1  -6  71 W8        30.49F WCI -12
ROSEAU         CLOUDY     1  -6  71 W8        30.51S WCI -12
HALLOCK        CLOUDY     0  -6  78 NW7       30.56R WCI -13
THF RVR FALLS  FLURRIES   2  -3  80 NW10      30.52S WCI -14
HALSTAD          N/A      1  -6  74 NW9         N/A  WCI -14
FOSSTON        CLOUDY     3  -2  78 W7        30.49S WCI  -9
BAUDETTE       CLEAR      1  -8  66 W9        30.46F WCI -14
WASKISH        CLOUDY     7   0  72 NW10      30.46S WCI  -8
CROOKSTON      CLOUDY     1  -6  71 NW10      30.56S WCI -14
$$
  *****  WEATHER ACROSS CENTRAL AND WEST MINNESOTA  *****

CITY           SKY/WX    TMP DP  RH WIND       PRES   REMARKS
BEMIDJI        CLOUDY     6  -3  68 NW12      30.45S WCI -10
PARK RAPIDS    CLOUDY     7  -4  60 W8        30.45S WCI  -6
WADENA         CLOUDY     7  -2  66 W7        30.47S WCI  -5
DETROIT LAKES  MOCLDY     3   0  85 NW6       30.49S WCI  -8
MOORHEAD       PTCLDY     3  -2  78 NW8       30.55F WCI -10
FERGUS FALLS   CLOUDY     3  -2  78 N9        30.57S WCI -11
ELBOW LAKE     LGT SNOW   5   0  81 W9        30.51S WCI  -9
MORRIS MN      MOCLDY     7  -2  66 NW10      30.51S WCI  -8
STAPLES        CLOUDY     7  -2  66 W6        30.47S WCI  -3
WHEATON        MOCLDY     9   1  72 NW8       30.56S WCI  -4
$$
  *****  WEATHER ELSEWHERE ACROSS MINNESOTA  *****

CITY           SKY/WX    TMP DP  RH WIND       PRES   REMARKS
DULUTH         LGT SNOW   9   0  67 NW10      30.42S WCI  -5
INTRNTL FALLS  CLOUDY     5  -5  63 W8        30.45S WCI  -8
ELY            CLOUDY     5  -2  72 W7        30.41R WCI  -7
CLOQUET        CLOUDY    10   1  67 W5        30.43S WCI   2
BRAINERD       FLURRIES  10   2  69 NW8       30.46S WCI  -2
HIBBING        CLOUDY     5  -4  66 NW8       30.43S WCI  -8
ALEXANDRIA     MOCLDY     5  -3  69 NW9       30.49R WCI  -9
SAINT CLOUD    MOCLDY    12   3  67 NW8       30.49S WCI   0
MINNEAPOLIS    MOCLDY    16   5  62 W10       30.50S WCI   4
$$

  *****  WEATHER ACROSS SOUTH DAKOTA  *****

CITY           SKY/WX    TMP DP  RH WIND       PRES   REMARKS
SIOUX FALLS    MOCLDY    14   7  73 NE5       30.48S WCI   6
BROOKINGS      LGT SNOW   8   3  80 N7        30.47R WCI  -3
WATERTOWN      CLOUDY     4  -3  73 N8        30.46R WCI  -9
HURON          LGT SNOW   6   1  80 NE9       30.53R WCI  -8
SISSETON         N/A      6  -2  69 N10       30.53R WCI  -9
ABERDEEN       CLOUDY     8  -2  63 N7        30.54S WCI  -3
MITCHELL       CLOUDY    11   5  77 NE8       30.51R WCI  -1
PIERRE         LGT SNOW   5  -2  72 N10       30.49R WCI -10
MOBRIDGE       CLOUDY     1  -6  72 N6        30.49S WCI -10
RAPID CITY     FLURRIES   3  -3  76 N8        30.34S WCI -10
$$

  *****  SOME WEATHER IN NEARBY STATES *****

CITY           SKY/WX    TMP DP  RH WIND       PRES   REMARKS
GLASGOW MT     CLOUDY     0  -5  79 SE7       30.43F WCI -13
GREAT FALLS MT CLOUDY     1  -7  68 E6        30.16F WCI -10
CHEYENNE WY    CLOUDY    45  24  43 W15G23    30.09R
SCOTTSBLUFF NE SUNNY     26  11  52 E8        30.19R WCI  18
OMAHA NE       CLOUDY    21   8  57 E5        30.53F WCI  15
DES MOINES IA  CLOUDY    23   9  55 VRB3      30.54F
DAVENPORT IA   CLOUDY    22  12  65 W7        30.54S WCI  13
CHICAGO IL     MOCLDY    23  12  62 W9        30.49S WCI  13
EAU CLAIRE WI  PTCLDY    16   9  74 W8        30.47S WCI   5
LA CROSSE WI   PTCLDY    22  10  60 NW10      30.51R WCI  11
$$

  *****  SOME NATIONAL WEATHER *****

CITY           SKY/WX    TMP DP  RH WIND       PRES   REMARKS
LA GUARDIA NY  MOCLDY    39  18  42 NW22G35   30.18R
RALEIGH NC     PTCLDY    37  11  34 VRB3      30.41R
ATLANTA GA     CLEAR     40  15  36 N14       30.42R
NEW ORLEANS LA MOSUNNY   51  24  34 NE6       30.47S
OKLAHOMA CITY  CLOUDY    34  12  40 S14       30.44F WCI  25
ALBUQUERQUE NM CLOUDY    45  27  49 S5        30.28F
SALT LAKE CITY PTSUNNY   43  33  68 NW3       30.15F
LOS ANGELES CA PTSUNNY   62  56  80 SW6       30.19F
BOISE ID       MIX PCPN  31  28  89 N8        30.07F FOG     WCI  23
SEATTLE WA     CLOUDY    34  32  92 E20G25    29.93F WCI  23
$$

*** WEATHER ACROSS MANITOBA...SASKATCHEWAN AND ONTARIO ***
                ***ONTARIO***

CITY           SKY/WX    TMP DP  RH WIND       PRES   REMARKS
GERALDTON      FLURRIES   9   1  72 NW3       30.32S
THUNDER BAY    CLOUDY    16   7  67 NW5       30.40S WCI   9
SIOUX LOOKOUT  FLURRIES   7   1  78 W8        30.37S WCI  -6
TORONTO        MOCLDY    27  16  63 N9        30.28R WCI  17
BIG TROUT LK   FLURRIES  -2  -6  84 NW9       30.40S WCI -18
PICKLE LAKE    FLURRIES   0  -6  78 NW5       30.35R WCI -10
DRYDEN         FLURRIES   5   0  78 W7        30.38S WCI  -7
KENORA         LGT SNOW   3  -2  78 W7        30.42S WCI  -9
$$
                *** MANITOBA***

CITY           SKY/WX    TMP DP  RH WIND       PRES   REMARKS
BRANDON        PTCLDY    -6 -15  65 NW13      30.54S WCI -25
DAUPHIN        CLEAR     -9 -17  70 W7        30.57F WCI -24
ISLAND LAKE    FLURRIES -11 -17  77 NW7       30.52R WCI -26
PILOT MOUND      N/A     -9 -13  84 NW10        N/A  WCI -28
THE PAS        FLURRIES  -6 -11  77 NW12      30.58S WCI -24
THOMPSON       FLURRIES  -8 -13  77 W5        30.56S WCI -19
WINNIPEG       MOCLDY     0  -6  78 NW8       30.55S WCI -15
LYNN LAKE      FLURRIES  -6  -8  92 W5        30.54S WCI -17
CHURCHILL      PTCLDY    -6 -11  77 NW18G25   30.45S WCI -29
GILLAM         PTCLDY    -4  -9  77 NW12      30.50S WCI -22
$$
                ***SASKATCHEWAN***

CITY           SKY/WX    TMP DP  RH WIND       PRES   REMARKS
ESTEVAN        PTCLDY   -13 -17  84 W6        30.52F WCI -27
KINDERSLEY     PTCLDY    -6 -13  71 E3        30.43F
LLOYDMINSTER   CRYSTALS  -9 -13  84 S2        30.45F
PRINCE ALBERT  CLEAR     -6 -15  65 N2        30.56F
REGINA         CRYSTALS  -8 -13  77 W7        30.51F WCI -22
YORKTON        CLEAR     -6 -13  71 W8        30.52S WCC1F1C2F2C3F3C4F4C5F5C6F6C7F7C8F8C9F9CaFaCbFbCcFcCdFdCe!


USA.gov is the U.S. government's official web portal to all federal, state and local government web resources and services.